Regional Weather Roundup
Issued by NWS Sterling, VA

Home | Current Version | Previous Version | Graphics & Text | Print | Product List | Glossary On
Versions: 1 2 3 4 5 6 7 8 9 10 11 12 13 14 15 16 17 18 19 20 21 22 23 24 25 26 27 28 29 30 31 32 33 34 35 36 37 38 39 40 41 42 43 44 45 46 47 48
000
ASUS41 KLWX 242010
RWRLWX

REGIONAL WEATHER ROUNDUP
NATIONAL WEATHER SERVICE BALTIMORE MD/WASHINGTON DC
400 PM EDT SUN MAY 24 2015

Note: "FAIR" indicates few or no clouds below 12,000 feet
with no significant weather and/or obstructions to visibility.
 TC=TEMPERATURE CELSIUS

 * =Non NWS site. Station does not report precipitation (e.g. rain,
    snow, etc.), thunder, or fog.

DCZ001-MDZ009-015-VAZ040>042-051-053>054-242100-
WASHINGTON METRO

CITY           SKY/WX    TMP DP  RH WIND       PRES   REMARKS
WASHINGTON NAT MOSUNNY   82  59  45 S12       30.28F
DULLES         MOSUNNY   81  50  33 SW8       30.27F
ANDREWS AFB    SUNNY     80  55  41 SW9       30.28F
FT BELVOIR     SUNNY     80  56  43 VRB6      30.28F
QUANTICO       SUNNY     79  62  56 S10       30.28F
COLLEGE PARK*  SUNNY     81  52  36 S3        30.28F
LEESBURG*      SUNNY     84  46  26 SW7       30.28F
MANASSAS*      SUNNY     82  54  36 SE3       30.28F
GAITHERSBURG*  SUNNY     81  48  32 CALM      30.32F

$$

MDZ006>007-011-014-242100-
BALTIMORE METRO

CITY           SKY/WX    TMP DP  RH WIND       PRES   REMARKS
BWI AIRPORT    MOSUNNY   80  47  31 VRB6      30.27F
MD SCIENCE CTR   N/A     78  57  48 MISG      30.28F
MARTIN STATE   MOSUNNY   75  61  60 SE10      30.31F
ANNAPOLIS      SUNNY     73  58  59 SE13      30.28F
FORT MEADE*    SUNNY     79  48  34 S5        30.30F

$$

MDZ012-015-019>023-242100-
MARYLAND EASTERN SHORE

CITY           SKY/WX    TMP DP  RH WIND       PRES   REMARKS
OCEAN CITY     SUNNY     67  51  56 S10G25    30.34F
SALISBURY      SUNNY     77  55  46 SW9       30.31F
BAY BRIDGE AP*   N/A    N/A N/A N/A SE10      30.30F
CAMBRIDGE*     SUNNY     77  55  47 S8        30.30F
EASTON*        MOSUNNY   79  57  47 SW10      30.34F

$$

MDZ017>025-242100-
SOUTHERN MARYLAND

CITY           SKY/WX    TMP DP  RH WIND       PRES   REMARKS
PATUXENT RIVER MOSUNNY   72  59  63 SE17G23   30.29F
ST INIGOES     SUNNY     78  61  55 SE9       30.29F
LEONARDTOWN*   SUNNY     79  54  41 SW6       30.31F

$$

MDZ003>005-242100-
NORTH CENTRAL MARYLAND

CITY           SKY/WX    TMP DP  RH WIND       PRES   REMARKS
FREDERICK*     SUNNY     82  46  28 SW6       30.30F
HAGERSTOWN APT SUNNY     82  39  21 VRB6      30.27F
WESTMINSTER*   SUNNY     81  36  19 CALM      30.30F

$$

MDZ501>502-242100-
WESTERN MARYLAND

CITY           SKY/WX    TMP DP  RH WIND       PRES   REMARKS
OAKLAND*       SUNNY     73  43  33 W7        30.33F
CUMBERLAND*    SUNNY     82  39  21 CALM      30.29F

$$

VAZ025>031-242100-
SHENANDOAH VALLEY

CITY           SKY/WX    TMP DP  RH WIND       PRES   REMARKS
WINCHESTER*    SUNNY     82  32  16 S7        30.27F
FRONT ROYAL*   FAIR      81  54  39 SE3       30.26F
LURAY*         FAIR      86  54  32 S7        30.26F
NEW MARKET*    FAIR      82  51  34 S10G17    30.25F
STAUNTON*      SUNNY     83  47  27 SW9       30.30F
WAYNESBORO*    FAIR      79  51  37 S9        30.31F

$$

WVZ021-048>050-054>055-242100-
EASTERN WEST VIRGINIA PANHANDLE

CITY           SKY/WX    TMP DP  RH WIND       PRES   REMARKS
MARTINSBURG    SUNNY     80  43  26 VRB3      30.27F
PETERSBURG*    PTSUNNY   81  48  31 SE5       30.26F

$$

VAZ036>039-050-242100-
CENTRAL FOOTHILLS

CITY           SKY/WX    TMP DP  RH WIND       PRES   REMARKS
CHARLOTTESVILL SUNNY     83  52  34 S12       30.27F
CULPEPER*      MOSUNNY   81  55  40 SW7       30.27F
ORANGE*        SUNNY     82  52  34 SW9       30.29F
GORDONSVILLE*  FAIR      82  52  34 S10G22    30.27F
WARRENTON*     FAIR      82  58  43 S6        30.27F

$$

VAZ055>057-242100-
NORTH AND CENTRAL PIEDMONT

CITY           SKY/WX    TMP DP  RH WIND       PRES   REMARKS
FREDERICKSBRG* MOSUNNY   85  55  35 SW9       30.27F
STAFFORD*      SUNNY     83  49  31 S6        30.31F

$$

NCZ024-NYZ072-PAZ021-071-VAZ022-071-242100-
OTHER REGIONAL OBSERVATIONS

CITY           SKY/WX    TMP DP  RH WIND       PRES   REMARKS
NEW YORK CITY  MOSUNNY   79  42  26 MISG      30.27F
PHILADELPHIA   MOSUNNY   81  46  29 SW13      30.28F
PITTSBURGH     PTSUNNY   80  35  19 SW7       30.25F
ROANOKE        MOSUNNY   81  50  33 S14G22    30.32F
RICHMOND       MOSUNNY   83  55  38 SW10      30.31F
RALEIGH        MOSUNNY   81  53  37 S8        30.34F

$$

ANZ530>537-242100-
MARINE OBSERVATIONS

STATION/POSITION TIME  TEMP    WIND        PRES
                       AIR SEA DIR/SP/G
                 (UTC) (F)     (DEG/KT/KT) (MB)
THOMAS PT LIGHT  2000   69 66  180/  9/  9 1026.3F
BALT KEY BRIDGE  1900   69     100/ 10/ 12 1026.1F
LEWISETTA        1900   78 71              1026.2F
SOLOMONS ISLAND  1900      70                N/A
PINEY POINT      1900          130/  8/  8   N/A

$$



USA.gov is the U.S. government's official web portal to all federal, state and local government web resources and services.